Погода в Дементьевке

Россия / Орловская область     52°58′39″N   37°31′33″E
темп.,
°C
ветер,
м/с
пор.,
м/с
влажн.,
%
обл.,
%
осадки,
мм/ч
давл.,
гПа
погр.,
м
12 апреля, пн
пн1200:00+6всв41267100 0.0 1030259
03:00+5всв51367100 0.0 1030281
06:00+4всв61569100 0.0 1029346
09:00+6в7118392 0.4 1028363
12:00+12в71073100 0.0 1027488
15:00+17в8115893 0.0 1025786
18:00+17вюв612588 0.0 1024434
21:00+13вюв615615 0.0 1025310
13 апреля, вт
вт1300:00+11юв5146973 0.0 1025267
03:00+9юв41278100 0.0 1025191
06:00+8юв41077100 0.0 1025149
09:00+12юв61161100 0.0 1025358
12:00+17юв694414 0.0 1024987
15:00+19юв7103197 0.0 10231675
18:00+18юв510390 0.0 1022327
21:00+13вюв411585 0.0 1022185
14 апреля, ср
ср1400:00+11юв5146196 0.0 1022322
03:00+9юв41169100 0.0 1022210
06:00+8юв4971100 0.0 1021159
09:00+13юв5953100 0.0 1020356
12:00+17юв683784 0.0 10191076
15:00+18ююв6828100 0.0 10181829
18:00+16ююв3638100 0.0 1017247
21:00+14ююв344796 0.0 101754
15 апреля, чт
чт1500:00+11зсз2266100 0.0 101711
03:00+10с1170100 0.0 101710
06:00+10св2270100 0.0 101711
09:00+12в2357100 0.0 1017220
12:00+16в4546100 0.0 1016642
15:00+18в5635100 0.0 10141942
18:00+16в3546100 0.0 1013115
21:00+12вюв49665 0.0 1014327
16 апреля, пт
пт1600:00+11вюв387674 0.1 1014174
03:00+11вюв387994 0.1 1013160
06:00+9в4682100 0.0 1014109
09:00+13юв5669100 0.1 1014558
12:00+12вюв357599 0.6 1015280
15:00+16юв465293 1.6 10151474
18:00+14юв236293 0.4 101672
21:00+13ссз1165100 0.9 101714